EW5546 Weather Reports


Display with metric or nautical units.
time (UTC)temp
F
wind
direction
speed
MPH
gust
MPH
rain 1hr
in
rain 24hr
in
rain mn
in
humidity
%
barometer
mb
20260904210022 66 243 1.0 2.0 0.00 0.08 0.08 72 1002.9
20260904205022 67 248 0.0 2.0 0.00 0.08 0.08 72 1002.9
20260904204022 67 240 1.0 2.0 0.00 0.08 0.08 73 1002.9
20260904203043 67 220 1.0 2.0 0.00 0.08 0.08 72 1002.9
20260904202042 68 232 1.0 2.0 0.08 0.08 0.08 72 1002.9
20260904201117 69 216 2.0 3.0 0.08 0.08 0.08 72 1002.9
20260904200016 69 226 2.0 3.0 0.08 0.08 0.08 71 1002.9
20260904195018 70 268 2.0 3.0 0.08 0.08 0.08 67 1001.9
20260904194022 71 234 2.0 2.0 0.00 0.00 0.00 64 1001.9
20260904193024 71 239 2.0 3.0 0.00 0.00 0.00 60 1001.9
20260904192024 72 202 2.0 3.0 0.00 0.00 0.00 56 1001.9
20260904191024 72 190 4.0 6.0 0.00 0.00 0.00 56 1001.9
20260904190024 72 218 2.0 2.0 0.00 0.00 0.00 55 1001.9
20260904185042 72 232 2.0 3.0 0.00 0.00 0.00 55 1001.9
20260904184021 72 208 2.0 5.0 0.00 0.00 0.00 55 1001.9
20260904183022 71 224 1.0 2.0 0.00 0.00 0.00 55 1001.9
20260904182022 71 206 2.0 4.0 0.00 0.00 0.00 55 1001.9
20260904181022 71 230 2.0 2.0 0.00 0.00 0.00 55 1002.7
20260904180023 71 226 1.0 3.0 0.00 0.00 0.00 55 1002.9
20260904175017 71 212 1.0 2.0 0.00 0.00 0.00 55 1002.9
20260904174026 71 214 1.0 2.0 0.00 0.00 0.00 54 1002.9
20260904173024 71 175 2.0 2.0 0.00 0.00 0.00 54 1002.9
20260904172022 72 219 2.0 3.0 0.00 0.00 0.00 53 1002.9
20260904171016 72 243 1.0 2.0 0.00 0.00 0.00 52 1003.8
20260904170022 72 219 2.0 4.0 0.00 0.00 0.00 52 1003.9
20260904165042 72 233 2.0 3.0 0.00 0.00 0.00 51 1003.9
20260904164022 72 246 3.0 4.0 0.00 0.00 0.00 50 1003.9
20260904163022 72 238 2.0 3.0 0.00 0.00 0.00 50 1003.9
20260904162022 72 229 2.0 4.0 0.00 0.00 0.00 49 1004.9
20260904161024 72 222 2.0 3.0 0.00 0.00 0.00 49 1004.9
20260904160024 72 230 2.0 3.0 0.00 0.00 0.00 49 1004.9
20260904155026 72 174 2.0 3.0 0.00 0.00 0.00 49 1004.9
20260904154022 72 258 1.0 2.0 0.00 0.00 0.00 48 1004.9
20260904153024 72 218 1.0 3.0 0.00 0.00 0.00 48 1004.9
20260904152035 72 200 2.0 3.0 0.00 0.00 0.00 48 1004.9
20260904151102 72 231 1.0 2.0 0.00 0.00 0.00 48 1005.6
20260904145022 73 205 2.0 3.0 0.00 0.00 0.00 48 1005.9
20260904144022 73 193 1.0 2.0 0.00 0.00 0.00 48 1005.9
20260904143039 73 216 2.0 2.0 0.00 0.00 0.00 47 1005.9
20260904142022 73 223 2.0 3.0 0.00 0.00 0.00 47 1005.9
20260904141025 73 219 2.0 4.0 0.00 0.00 0.00 47 1006.6
20260904140022 73 212 2.0 4.0 0.00 0.00 0.00 47 1007.0
20260904135022 73 212 3.0 4.0 0.00 0.00 0.00 47 1007.0
20260904134022 73 214 3.0 4.0 0.00 0.00 0.00 47 1007.0
20260904133015 73 215 3.0 4.0 0.00 0.00 0.00 48 1007.0
20260904132022 73 216 1.0 3.0 0.00 0.00 0.00 47 1008.0
20260904131042 73 224 3.0 3.0 0.00 0.00 0.00 48 1008.0
20260904130017 73 203 2.0 2.0 0.00 0.00 0.00 48 1008.0
20260904125102 73 181 2.0 2.0 0.00 0.00 0.00 48 1008.0
20260904124022 72 241 2.0 3.0 0.00 0.00 0.00 48 1008.0
20260904123022 72 222 2.0 3.0 0.00 0.00 0.00 48 1008.0
20260904122042 72 228 2.0 3.0 0.00 0.00 0.00 48 1008.0
20260904121015 72 228 2.0 2.0 0.00 0.00 0.00 49 1008.0
20260904120018 72 225 1.0 2.0 0.00 0.00 0.00 49 1008.0
20260904115022 72 214 3.0 4.0 0.00 0.00 0.00 49 1009.0
20260904114022 72 199 2.0 2.0 0.00 0.00 0.00 49 1009.0
20260904113018 72 211 2.0 3.0 0.00 0.00 0.00 50 1009.0
20260904112044 73 222 2.0 3.0 0.00 0.00 0.00 49 1009.0
20260904111022 72 230 3.0 4.0 0.00 0.00 0.00 50 1009.0
20260904110026 73 226 2.0 3.0 0.00 0.00 0.00 52 1009.0
20260904105025 72 200 2.0 3.0 0.00 0.00 0.00 53 1010.0
20260904104015 72 232 2.0 3.0 0.00 0.00 0.00 54 1010.0
20260904103022 71 245 1.0 1.0 0.00 0.00 0.00 55 1010.0
20260904102022 71 260 1.0 2.0 0.00 0.00 0.00 57 1010.0
20260904101022 71 230 3.0 6.0 0.00 0.00 0.00 57 1010.0
20260904100021 70 238 1.0 3.0 0.00 0.00 0.00 60 1010.0
20260904095022 70 217 2.0 4.0 0.00 0.00 0.00 60 1010.0
20260904094023 69 245 1.0 2.0 0.00 0.00 0.00 61 1010.0
20260904093023 70 225 2.0 3.0 0.00 0.00 0.00 61 1010.0
20260904092023 69 209 1.0 2.0 0.00 0.00 0.00 62 1010.0
20260904091020 69 312 2.0 6.0 0.00 0.00 0.00 63 1010.0
20260904090022 68 218 2.0 3.0 0.00 0.00 0.00 63 1010.0
20260904085015 68 228 2.0 2.0 0.00 0.00 0.00 64 1010.0
20260904084022 68 220 1.0 1.0 0.00 0.00 0.00 65 1010.0
20260904083022 68 220 2.0 3.0 0.00 0.00 0.00 66 1010.0
20260904082025 68 226 1.0 2.0 0.00 0.00 0.00 67 1010.0
20260904081022 68 210 1.0 2.0 0.00 0.00 0.00 67 1010.0
20260904080024 67 209 1.0 1.0 0.00 0.00 0.00 67 1010.0
20260904075022 67 239 1.0 2.0 0.00 0.00 0.00 67 1010.0
20260904074016 67 255 2.0 3.0 0.00 0.00 0.00 68 1010.0
20260904073022 67 219 1.0 1.0 0.00 0.00 0.00 68 1010.0
20260904072022 67 222 1.0 3.0 0.00 0.00 0.00 68 1010.0
20260904071102 67 208 1.0 2.0 0.00 0.00 0.00 69 1010.0
20260904070047 66 223 2.0 3.0 0.00 0.00 0.00 69 1010.0
20260904065023 66 217 1.0 2.0 0.00 0.00 0.00 70 1010.0
20260904064022 66 208 1.0 2.0 0.00 0.00 0.00 70 1010.0
20260904063022 65 222 1.0 3.0 0.00 0.00 0.00 71 1010.0
20260904062022 65 219 1.0 1.0 0.00 0.00 0.00 71 1010.0
20260904061022 64 228 2.0 3.0 0.00 0.00 0.00 72 1010.0
20260904060024 64 234 1.0 2.0 0.00 0.00 0.00 72 1010.0
20260904055029 64 221 2.0 3.0 0.00 0.00 0.00 71 1010.0
20260904054024 64 218 2.0 3.0 0.00 0.00 0.00 71 1010.0
20260904053025 64 206 2.0 3.0 0.00 0.00 0.00 70 1010.0
20260904052025 64 230 1.0 2.0 0.00 0.00 0.00 70 1010.0
20260904051017 64 221 2.0 3.0 0.00 0.00 0.00 68 1010.0
20260904050022 64 214 1.0 1.0 0.00 0.00 0.00 68 1010.0
20260904045022 64 203 1.0 2.0 0.00 0.00 0.00 67 1010.0
20260904044015 64 217 2.0 2.0 0.00 0.00 0.00 68 1010.0
20260904043024 64 211 2.0 2.0 0.00 0.00 0.00 67 1010.0
20260904042022 64 224 1.0 2.0 0.00 0.00 0.00 67 1011.0
20260904041026 64 207 1.0 2.0 0.00 0.00 0.00 66 1011.0
20260904040020 64 203 1.0 2.0 0.00 0.00 0.00 66 1011.0
20260904035023 64 207 1.0 3.0 0.00 0.00 0.00 65 1010.0
20260904034016 64 202 1.0 2.0 0.00 0.00 0.00 65 1010.7
20260904033023 64 238 1.0 2.0 0.00 0.00 0.00 64 1011.0
20260904032022 64 227 1.0 2.0 0.00 0.00 0.00 64 1011.0
20260904031023 64 218 1.0 1.0 0.00 0.00 0.00 63 1011.0
20260904030022 64 210 1.0 1.0 0.00 0.00 0.00 62 1011.0
20260904025022 64 203 0.0 1.0 0.00 0.00 0.00 62 1011.0
20260904024018 64 214 1.0 1.0 0.00 0.00 0.00 62 1011.0
20260904023046 64 203 1.0 2.0 0.00 0.00 0.00 62 1011.0
20260904022042 64 225 0.0 1.0 0.00 0.00 0.00 61 1011.0
20260904021022 64 203 1.0 1.0 0.00 0.00 0.00 61 1011.0
20260904020023 64 230 1.0 1.0 0.00 0.00 0.00 62 1011.0
20260904015022 64 191 1.0 2.0 0.00 0.00 0.00 62 1011.0
20260904014022 64 225 1.0 2.0 0.00 0.00 0.00 62 1011.0
20260904013016 64 225 1.0 1.0 0.00 0.00 0.00 62 1011.0
20260904012022 64 231 0.0 1.0 0.00 0.00 0.00 63 1011.0
20260904011042 64 214 1.0 1.0 0.00 0.00 0.00 63 1011.0
20260904010050 64 203 0.0 1.0 0.00 0.00 0.00 63 1011.0
20260904005016 64 203 1.0 2.0 0.00 0.00 0.00 62 1011.0
20260904004022 64 248 0.0 1.0 0.00 0.00 0.00 63 1011.0
20260904003016 65 0.0 0.0 0.00 0.00 0.00 63 1011.0
20260904002024 65 231 1.0 1.0 0.00 0.00 0.00 63 1012.0
20260904001022 65 230 1.0 2.0 0.00 0.00 0.00 64 1012.0
20260904000023 65 203 0.0 1.0 0.00 0.00 0.00 63 1012.0
20260903235024 65 248 1.0 2.0 0.00 0.00 0.00 63 1012.0
20260903234025 65 0.0 0.0 0.00 0.00 0.00 63 1012.0
20260903233023 65 0.0 0.0 0.00 0.00 0.00 61 1012.0
20260903232022 66 203 0.0 2.0 0.00 0.00 0.00 59 1012.0
20260903231042 66 203 1.0 1.0 0.00 0.00 0.00 58 1012.9
20260903230044 66 0.0 0.0 0.00 0.00 0.00 57 1013.0
20260903225022 67 214 0.0 1.0 0.00 0.00 0.00 52 1012.0
20260903224025 67 234 1.0 1.0 0.00 0.00 0.00 52 1012.0
20260903223021 67 0.0 0.0 0.00 0.00 0.00 52 1012.0
20260903222022 67 203 0.0 1.0 0.00 0.00 0.00 52 1012.0
20260903221024 67 203 0.0 1.0 0.00 0.00 0.00 51 1012.7
20260903220018 67 203 1.0 1.0 0.00 0.00 0.00 52 1013.0
20260903215022 67 0.0 0.0 0.00 0.00 0.00 52 1013.0
20260903214024 67 203 0.0 1.0 0.00 0.00 0.00 51 1013.0
20260903213027 67 225 0.0 1.0 0.00 0.00 0.00 52 1013.0
20260903212022 67 218 1.0 1.0 0.00 0.00 0.00 52 1013.0
20260903211022 67 215 1.0 2.0 0.00 0.00 0.00 52 1013.0